Regional Weather Roundup
Issued by NWS

Home | Current Version | Previous Version | Text Only | Print | Product List | Glossary On
Versions: 1 2 3 4 5 6 7 8 9 10 11 12 13 14 15 16 17 18 19 20 21 22 23 24 25 26 27 28 29 30 31 32 33 34 35 36 37 38 39 40 41 42 43 44 45 46 47 48 49 50
000
ASUS46 KPQR 190810
RWROR

OREGON REGIONAL WEATHER ROUNDUP
NATIONAL WEATHER SERVICE PORTLAND OR
100 AM PDT FRI SEP 19 2014

NOTE: "FAIR" INDICATES FEW OR NO CLOUDS BELOW 12,000 FEET WITH
NO SIGNIFICANT WEATHER AND/OR OBSTRUCTIONS TO VISIBILITY.

ORZ001>013-190900-
NORTHWEST OREGON


CITY           SKY/WX    TMP DP  RH WIND       PRES   REMARKS
ASTORIA        CLOUDY    62  59  90 SW3       30.00S
NEWPORT        CLEAR     54  54 100 CALM      30.05S
PORTLAND       MOCLDY    65  59  81 W5        30.01R
VANCOUVER WA   CLOUDY    64  58  80 CALM      30.00S
SCAPPOOSE      CLOUDY    60  58  92 CALM      30.00S
HILLSBORO      PTCLDY    57  55  93 CALM      30.01R
AURORA         PTCLDY    62  57  83 CALM      30.01S
MCMINNVILLE    CLEAR     58  55  90 W5        30.01S
SALEM          PTCLDY    60  54  80 CALM      30.00R
CORVALLIS      PTCLDY    61  54  77 NW8       30.02S
EUGENE         PTCLDY    58  53  84 NW3       30.02R
$$

ORZ021-028-190900-
SOUTHWEST OREGON


CITY           SKY/WX    TMP DP  RH WIND       PRES   REMARKS
NORTH BEND     CLEAR     55  55 100 CALM      30.04R
BROOKINGS      SUNNY     61  60  96 CALM      29.98S
ROSEBURG       CLEAR     63  57  81 CALM      30.01R
SEXTON SUMMIT  MOCLDY    55  55 100 N9        30.08S FOG
MEDFORD        CLEAR     67  56  67 N3        30.00R
$$

ORZ009-041-190900-
COLUMBIA GORGE


CITY           SKY/WX    TMP DP  RH WIND       PRES   REMARKS
TROUTDALE      CLOUDY    65  58  78 W6        29.99S
THE DALLES     CLEAR     64  54  69 SW6       29.95R
$$

ORZ029>031-042>050-061>064-190900-
EASTERN OREGON


CITY           SKY/WX    TMP DP  RH WIND       PRES   REMARKS
REDMOND        PTCLDY    49  45  86 SE5       30.05R
BEND           MOSUNNY   50  46  87 CALM      30.08R
KLAMATH FALLS  CLEAR     54  46  74 W6        30.07R
LAKEVIEW       CLEAR     55  43  62 N12       30.10S
HERMISTON      PTCLDY    65  50  58 SW12      29.93R
PENDLETON      PTCLDY    63  48  58 W15       29.96R
JOHN DAY       CLOUDY    61  49  64 W3        30.06R
MEACHAM        PTCLDY    51  45  79 CALM      30.04R
LA GRANDE      PTCLDY    61  43  51 N7        30.00R
BAKER CITY     CLEAR     52  47  83 SW3       30.02R
BURNS          CLEAR     54  46  74 W9        30.04R
ROME             N/A     56  36  47 NE6       30.01R
ONTARIO        CLEAR     68  50  52 NW20G26   29.92R
$$


USA.gov is the U.S. government's official web portal to all federal, state and local government web resources and services.